Location: Antoign�
(47.0844°N, 0.1131°W)
Time: 21:28:57
(UTC+00:00)

Daily predictions for brighter satellites

Satellite Brightness Start Highest point End
(mag) Time Altitude Azimuth Time Altitude Azimuth Time Altitude Azimuth
IRS-1C Rocket 4.1 18:07:21 10° SSE 18:12:33 65° ENE 18:17:47 10° N
Meteor 1-20 Rocket 4.2 18:09:25 10° S 18:14:44 57° E 18:20:07 10° NNE
SL-4 R/B 2.6 18:11:24 10° WNW 18:14:48 38° N 18:18:04 10° ENE
Cosmos 1302 Rocket 4.0 18:09:43 10° SSW 18:14:54 78° ESE 18:20:08 10° NNE
CSL-04 DEB 4.3 18:15:04 10° NNE 18:19:02 75° ESE 18:23:02 10° S
USA 307 4.0 18:16:41 10° W 18:20:44 39° NNW 18:24:45 10° NE
FALCON 9 DEB 3.7 18:19:30 10° NW 18:22:48 44° NNE 18:26:06 10° E
ATLAS CENTAUR R/B 2.5 18:20:45 10° SSE 18:23:26 20° ESE 18:26:09 10° ENE
USA 306 4.0 18:20:09 10° W 18:24:10 37° NNW 18:28:09 10° NE
FALCON 9 DEB 4.5 18:23:51 10° WNW 18:26:38 27° N 18:29:24 10° ENE
Cosmos 44 Rocket 3.5 18:21:37 10° NW 18:26:53 75° NE 18:32:05 10° SE
ERS-2 2.8 18:24:53 10° NNE 18:28:15 33° E 18:31:36 10° SSE
Okean-O 2.7 18:24:07 10° SSE 18:28:29 61° ENE 18:32:52 10° N
FALCON 9 DEB 4.5 18:25:44 10° WNW 18:28:34 28° N 18:31:23 10° NE
Cosmos 1844 Rocket 3.2 18:23:59 10° NNW 18:29:14 39° NE 18:34:26 10° ESE
Cosmos 2084 Rocket 3.6 18:24:58 10° NW 18:29:15 60° NE 18:33:41 10° SE
CSL-04 Rocket 4.1 18:24:44 10° SE 18:29:58 44° ENE 18:35:10 10° N
CSL-04 Debris 4.4 18:26:07 10° SE 18:31:17 48° ENE 18:36:32 10° N
USA 308 4.0 18:27:23 10° W 18:31:22 37° NNW 18:35:21 10° NE
Cosmos 1666 4.3 18:31:45 10° ESE 18:33:53 15° E 18:36:01 10° NE
Cosmos 1271 Rocket 3.3 18:30:13 10° NNW 18:33:55 60° W 18:37:37 10° S
Cosmos 1503 Rocket 4.2 18:30:53 10° NNW 18:35:58 50° ENE 18:40:58 10° SE
HJ-1C 3.6 18:33:12 10° SSE 18:36:23 45° ENE 18:39:35 10° N
H-2A R/B 3.9 18:33:25 10° N 18:37:05 32° WNW 18:40:45 10° SW
SKYMED 2 4.3 18:34:01 10° N 18:38:18 59° WNW 18:42:34 10° SSW
MOS 1 Rocket 4.3 18:34:25 10° N 18:39:21 56° WNW 18:44:30 10° SSW
PSLV R/B 3.9 18:35:21 10° NNE 18:39:25 60° ESE 18:43:25 10° S
Cosmos 1844 4.2 18:35:34 10° NNW 18:41:02 41° NE 18:46:26 10° SE
Cosmos 1470 Rocket 3.7 18:37:19 10° S 18:41:39 52° E 18:46:00 10° NNE
CZ-4B R/B 2.4 18:40:27 10° N 18:43:22 44° WNW 18:46:19 10° SW
Cosmos 2360 Rocket 2.6 18:38:42 10° S 18:43:57 41° ESE 18:49:14 10° NE
Cosmos 1602 3.7 18:41:23 10° S 18:45:17 88° E 18:49:14 10° N
Ariane Rocket 4.2 18:42:04 11° ESE 18:45:35 22° ENE 18:49:28 10° N
Cosmos 2278 Rocket 4.0 18:42:35 10° N 18:45:52 15° NE 18:48:36 11° ENE
Meteor 1-19 Rocket 4.3 18:43:02 10° N 18:49:01 84° ENE 18:54:49 10° SSE
Cosmos 1500 3.3 18:48:47 10° SSE 18:52:21 47° E 18:55:58 10° NNE
Meteor 2-4 Rocket 3.9 18:47:48 10° N 18:53:34 56° ENE 18:59:22 10° SSE
Cosmos 1703 Rocket 4.0 18:49:40 10° N 18:53:48 38° ENE 18:57:53 10° SE
Cosmos 2333 Rocket 3.2 18:50:01 10° SSE 18:54:19 23° E 18:58:38 10° NE
DMSP B5D1-3 4.5 18:49:23 10° NNE 18:54:32 70° ESE 18:59:40 10° S
Cosmos 1689 Rocket 1.8 18:53:55 10° NNE 18:56:48 83° E 18:59:41 10° SSW
SL-08 RB Rocket 3.7 18:52:36 10° SSE 18:57:03 63° ENE 19:01:35 10° N
Meteor 2-12 Rocket 4.4 18:51:49 10° S 18:57:49 70° E 19:03:53 10° NNE
ERBS 3.8 18:56:19 10° W 18:59:20 32° NNW 19:02:18 10° NE
Cosmos 1980 Rocket 4.2 18:55:33 10° WSW 19:00:19 27° NW 19:05:08 10° N
Cosmos 1933 Rocket 3.5 18:58:18 10° S 19:02:33 57° E 19:06:52 10° NNE
Aureole 2 Rocket 1.8 19:02:00 10° NNW 19:04:32 67° WSW 19:06:51 11° SSE
Cosmos 1862 Rocket 4.3 19:01:29 10° NNW 19:05:55 59° W 19:10:18 10° S
Cosmos 2242 Rocket 3.5 19:07:26 10° N 19:11:57 66° E 19:16:22 10° SSE
Resurs 01 Rocket 3.4 19:12:41 16° NE 19:12:41 16° NE 19:14:53 10° NNE
Cosmos 2322 Rocket 2.5 19:08:15 10° SW 19:13:50 72° WNW 19:19:29 10° NNE
Abrixas rocket 1.6 19:13:20 10° W 19:15:49 60° N 19:16:07 53° NE
Lacrosse 4 Rocket 3.0 19:12:34 10° SSE 19:14:29 19° SE 19:14:29 19° SE
SME Rocket 4.5 19:10:47 10° NNE 19:18:25 43° E 19:23:31 10° SSE
Helios 1A Rocket 3.4 19:15:28 10° S 19:19:28 61° WSW 19:23:29 10° NNW
FALCON 9 DEB 4.4 19:17:05 10° WNW 19:19:53 27° N 19:20:46 24° NE
YAOGAN 1 4.1 19:16:17 10° SSW 19:20:19 38° W 19:24:23 10° NNW
COSMOS 2428 3.4 19:19:29 10° SSE 19:24:15 28° ESE 19:24:51 28° E
SJ-6B 3.1 19:22:30 28° SE 19:24:19 49° ENE 19:28:15 10° N
ASTEX 1 3.7 19:22:55 10° NNE 19:27:31 39° E 19:30:11 22° SE
GP-B 3.1 19:23:52 10° S 19:28:19 83° W 19:32:47 10° N
Meteor 1-14 Rocket 4.4 19:23:16 10° SSW 19:28:49 75° WNW 19:34:23 10° N
MOS 1 4.5 19:25:33 20° SE 19:29:15 51° ENE 19:34:45 10° N
Cosmos 2219 Rocket 2.6 19:26:02 10° S 19:31:07 38° ESE 19:36:15 10° NE
Meteor 1-11 Rocket 3.9 19:26:12 10° SSE 19:31:38 46° E 19:36:58 10° NNE
FALCON 9 DEB 4.2 19:29:33 10° NW 19:32:24 29° N 19:32:42 28° NNE
MetOp-A 4.0 19:27:58 10° SSE 19:33:19 78° ENE 19:38:41 10° NNW
OBJECT-B 1.6 19:36:26 38° NNE 19:36:26 38° NNE 19:38:45 10° N
ARGOS 4.3 19:32:30 10° S 19:37:40 44° W 19:42:52 10° NNW
SL-16 R/B 3.5 19:33:22 10° WSW 19:38:41 40° NW 19:44:02 10° NNE
Resurs 1-3 4.0 19:38:47 41° ENE 19:38:51 41° ENE 19:42:59 10° N
SJ 16-02 2.6 19:36:28 10° N 19:39:35 26° NE 19:39:35 26° NE
Okean 1-7 3.2 19:36:43 10° NNW 19:41:06 75° W 19:45:25 10° S
SeaSat 1 2.7 19:36:16 10° NNE 19:41:12 70° WNW 19:46:06 10° SW
Cosmos 1066 Rocket 4.3 19:37:40 10° N 19:43:17 56° ENE 19:45:41 33° SE
Meteor 1-13 Rocket 4.2 19:37:45 10° N 19:43:44 76° ENE 19:48:31 16° SSE
CZ-4 R/B 4.4 19:41:23 10° SW 19:43:55 17° W 19:46:30 10° NW
USA 234 3.2 19:39:53 21° ENE 19:44:26 66° SE 19:50:55 10° SW
H-2A R/B 4.3 19:43:54 10° SSW 19:48:25 26° W 19:52:58 10° NW
CZ-2C R/B 3.3 19:43:25 10° N 19:48:49 58° WNW 19:54:04 10° SSW
USA 305 4.0 19:46:13 10° WNW 19:50:06 32° N 19:50:56 30° NNE
IRS-1A Rocket 4.1 19:46:43 24° SSE 19:50:11 76° ENE 19:55:46 10° NNW
BREEZE-M DEB (TANK) 2.5 19:47:49 10° WNW 19:50:25 63° N 19:51:09 51° ENE
Cosmos 2322 3.6 19:45:21 10° SSW 19:51:01 68° ESE 19:56:43 10° NNE
SL-4 R/B 2.0 19:51:12 10° WNW 19:54:12 59° NNW 19:54:12 59° NNW
DMSP B5D2-2 4.2 19:49:26 10° N 19:54:41 76° WNW 19:59:52 10° SSW
USA 186 3.9 19:56:42 17° NW 19:56:42 17° NW 19:57:31 10° NNW
Cosmos 1869 Rocket 3.4 19:52:28 10° S 19:56:50 89° E 20:01:16 10° N
SL-8 Rocket 4.0 19:53:03 10° S 19:59:18 82° W 20:05:32 10° N
Gbstr 26 Del rocket 3.9 19:54:59 10° WNW 19:59:36 51° N 20:00:59 41° NE
FALCON 9 DEB 4.2 19:56:30 10° WNW 19:59:26 40° SW 19:59:26 40° SW
USA 307 4.0 19:57:34 10° WNW 20:01:29 33° N 20:01:49 33° NNE
ATLAS CENTAUR R/B 2.2 19:58:36 10° WSW 20:02:02 40° NW 20:03:10 31° N
USA 306 4.0 20:00:58 10° WNW 20:04:53 34° N 20:05:03 34° NNE
Cosmos 1378 4.3 20:01:36 10° N 20:03:53 35° N 20:03:53 35° N
Cosmos 1666 3.9 20:05:32 10° SSW 20:09:04 41° WNW 20:12:39 10° N
USA 308 4.0 20:08:12 10° WNW 20:12:00 34° N 20:12:00 34° N
Cosmos 1844 Rocket 4.0 20:08:01 10° NW 20:13:04 37° WSW 20:17:54 11° S
Cosmos 2366 rocket 4.1 20:08:02 10° SSW 20:14:20 79° W 20:20:45 10° N
SL-08 R/B 4.4 20:11:58 29° SSE 20:15:23 68° E 20:21:49 10° NNE
Cosmos 1777 Rocket 4.4 20:11:22 10° NNW 20:16:32 61° WSW 20:18:16 39° SSW
SPOT 3 Rocket 3.6 20:18:38 62° NE 20:18:38 62° NE 20:23:21 10° N
Okean 3 3.9 20:15:06 10° NNW 20:19:17 58° W 20:19:31 57° WSW
Cosmos 2333 4.5 20:16:06 10° SW 20:21:43 67° WNW 20:27:26 10° NNE
Ariane Rocket 3.5 20:22:15 36° SSW 20:24:09 58° WSW 20:29:13 10° NNW
Cosmos 2221 Rocket 4.4 20:20:11 10° N 20:23:10 42° N 20:23:10 42° N
Cosmos 2360 Rocket 3.6 20:22:48 10° WSW 20:28:01 37° NW 20:33:16 10° NNE
Cosmos 2278 Rocket 2.4 20:25:29 10° NNW 20:30:28 59° NNE 20:30:28 59° NNE
Cosmos 1727 Rocket 4.1 20:29:39 10° NNW 20:35:49 71° W 20:37:44 45° SSW
Meteor 2-20 4.4 20:31:01 10° NNW 20:37:09 77° W 20:38:13 61° SSW
Cosmos 2333 Rocket 2.6 20:32:27 10° SW 20:38:05 63° WNW 20:43:47 10° NNE
Cosmos 1821 Rocket 4.3 20:41:55 53° NNE 20:41:55 53° NNE 20:46:35 10° NNE
Resurs 01 Rocket 3.2 20:50:14 31° NNW 20:50:14 31° NNW 20:52:38 10° NNW
Cosmos 1000 Rocket 4.5 20:42:45 10° N 20:48:32 76° N 20:48:32 76° N
Cosmos 1943 Rocket 4.1 20:45:47 10° N 20:48:24 19° NNE 20:48:24 19° NNE
Lacrosse 4 Rocket 4.0 20:50:06 10° SW 20:50:57 15° WSW 20:50:57 15° WSW
COSMOS 2428 3.6 21:02:43 10° SW 21:14:00 - NNE 21:07:14 45° W
Cosmos 2219 Rocket 3.4 21:09:50 10° WSW 21:15:03 39° NW 21:20:19 10° NNE
Terra 4.5 21:21:49 12° N 21:21:49 12° N 21:22:13 10° N
SJ 16-02 3.8 21:14:52 10° NW 21:16:35 21° NW 21:16:35 21° NW
USA 234 3.7 21:27:15 54° NNW 21:27:22 54° NNW 21:33:41 10° W
USA 281 4.5 21:34:30 32° N 21:34:30 32° N 21:38:15 10° NNW
Cosmos 2369 Rocket 4.4 21:30:53 10° N 21:32:29 17° N 21:32:29 17° N
